FW5284 Weather Reports


Display with metric or nautical units.
time (UTC)temp
F
wind
direction
speed
MPH
gust
MPH
rain 1hr
in
rain 24hr
in
rain mn
in
humidity
%
barometer
mb
20260510082010 49 295 0.0 0.0 0.00 0.10 0.08 93 990.3
20260510081533 49 295 0.0 0.0 0.00 0.10 0.08 93 990.6
20260510081009 49 295 0.0 0.0 0.00 0.10 0.08 93 990.7
20260510080508 49 295 0.0 0.0 0.00 0.10 0.08 92 990.7
20260510080023 49 295 0.0 0.0 0.00 0.10 0.08 93 990.6
20260510075506 49 295 0.0 0.0 0.00 0.10 0.08 93 990.5
20260510075004 49 295 0.0 0.0 0.00 0.10 0.08 93 990.7
20260510074512 49 295 0.0 0.0 0.00 0.10 0.08 93 990.6
20260510074003 49 295 0.0 0.0 0.00 0.10 0.08 93 990.5
20260510073504 49 295 0.0 0.0 0.00 0.11 0.08 93 990.3
20260510073008 49 295 0.0 0.0 0.00 0.11 0.08 93 990.2
20260510072507 49 295 0.0 0.0 0.00 0.11 0.08 93 990.2
20260510072004 49 295 0.0 0.0 0.00 0.11 0.08 93 990.3
20260510071512 49 295 0.0 0.0 0.00 0.12 0.08 92 990.2
20260510071004 49 295 0.0 0.0 0.00 0.12 0.08 92 989.9
20260510070505 49 295 0.0 0.0 0.00 0.13 0.08 92 989.9
20260510070014 49 295 0.0 0.0 0.00 0.14 0.08 92 989.9
20260510065504 49 295 0.0 0.0 0.00 0.15 0.08 92 989.9
20260510065004 49 295 0.0 0.0 0.00 0.16 0.08 91 989.9
20260510064518 49 295 0.0 0.0 0.00 0.17 0.08 91 990.1
20260510064003 50 295 0.0 0.0 0.00 0.18 0.08 91 990.0
20260510063503 50 295 0.0 0.0 0.00 0.19 0.08 91 990.0
20260510063013 50 295 0.0 0.0 0.00 0.20 0.08 91 990.0
20260510062508 50 295 0.0 0.0 0.00 0.20 0.08 91 990.0
20260510062004 50 295 0.0 0.0 0.00 0.21 0.08 91 990.0
20260510061509 51 295 0.0 0.0 0.00 0.21 0.08 91 989.9
20260510061004 51 295 0.0 0.0 0.00 0.22 0.08 91 990.2
20260510060504 51 295 0.0 0.0 0.00 0.23 0.08 91 990.3
20260510060011 51 295 0.0 0.0 0.01 0.23 0.08 91 990.3
20260510055505 51 295 0.0 0.0 0.01 0.25 0.08 91 990.4
20260510055004 51 295 0.0 0.0 0.01 0.26 0.08 91 990.2
20260510054516 52 295 0.0 0.0 0.01 0.26 0.08 91 990.2
20260510054008 52 295 0.0 0.0 0.01 0.26 0.08 91 990.1
20260510053507 52 295 0.0 0.0 0.01 0.27 0.08 91 990.2
20260510053019 52 295 0.0 0.0 0.03 0.27 0.08 91 990.1
20260510052506 52 295 0.0 0.0 0.04 0.28 0.08 91 990.0
20260510052008 52 295 0.0 0.0 0.06 0.29 0.08 91 989.9
20260510051519 52 295 0.0 0.0 0.06 0.29 0.08 91 989.9
20260510051007 52 295 0.0 0.0 0.07 0.29 0.08 91 989.9
20260510050503 52 295 0.0 0.0 0.07 0.30 0.08 91 990.0
20260510050011 52 295 0.0 0.0 0.07 0.29 0.07 91 990.0
20260510045506 52 295 0.0 0.0 0.07 0.29 0.07 91 990.0
20260510045006 52 295 0.0 0.0 0.08 0.29 0.07 91 989.9
20260510044502 53 295 0.0 0.0 0.08 0.29 0.07 91 990.1
20260510044002 53 295 0.0 0.0 0.08 0.29 0.07 91 990.2
20260510043502 53 295 0.0 0.0 0.08 0.29 0.07 90 990.7
20260510043004 53 295 0.0 0.0 0.06 0.28 0.05 91 990.5
20260510042503 53 295 0.0 0.0 0.05 0.27 0.04 90 990.7
20260510042003 53 295 0.0 0.0 0.03 0.25 0.02 90 990.8
20260510041504 53 295 0.0 0.0 0.03 0.25 0.02 90 990.6
20260510041004 53 295 0.0 0.0 0.02 0.24 0.01 89 990.6
20260510040504 53 295 0.0 0.0 0.02 0.24 0.01 89 990.6
20260510040010 53 295 0.0 0.0 0.01 0.23 0.00 89 990.6
20260510035502 54 295 0.0 0.0 0.01 0.23 0.23 88 990.5
20260510035004 54 295 0.0 0.0 0.00 0.23 0.22 88 990.4
20260510034512 54 295 0.0 0.0 0.00 0.23 0.22 87 990.4
20260510034006 54 295 0.0 0.0 0.00 0.24 0.22 87 990.5
20260510033505 55 295 0.0 0.0 0.00 0.24 0.22 87 990.6
20260510033004 55 295 0.0 0.0 0.00 0.24 0.22 87 990.7
20260510032502 55 295 0.0 0.0 0.00 0.24 0.22 86 990.6
20260510032003 55 295 0.0 0.0 0.00 0.25 0.22 85 990.6
20260510031503 56 295 0.0 0.0 0.00 0.25 0.22 84 990.6
20260510031002 55 295 0.0 0.0 0.00 0.26 0.22 84 990.6
20260510030505 55 295 0.0 0.0 0.00 0.26 0.22 84 990.2
20260510030007 55 295 0.0 0.0 0.00 0.26 0.22 84 989.8
20260510025503 55 295 0.0 0.0 0.00 0.26 0.22 84 989.7
20260510025002 55 295 0.0 0.0 0.00 0.26 0.22 84 989.4
20260510024510 55 295 0.0 0.0 0.00 0.26 0.22 84 989.2
20260510024003 55 295 0.0 0.0 0.00 0.26 0.22 84 989.2
20260510023506 55 295 0.0 0.0 0.00 0.26 0.22 84 989.3
20260510023016 55 295 0.0 0.0 0.00 0.26 0.22 84 989.3
20260510022510 55 295 0.0 0.0 0.00 0.26 0.22 84 989.2
20260510022007 55 295 0.0 0.0 0.00 0.26 0.22 84 989.1
20260510021521 55 295 0.0 0.0 0.00 0.26 0.22 84 989.0
20260510021002 55 295 0.0 0.0 0.00 0.26 0.22 84 988.9
20260510020506 55 295 0.0 0.0 0.00 0.27 0.22 84 988.9
20260510020004 55 295 0.0 0.0 0.00 0.27 0.22 83 988.8
20260510015504 55 295 0.0 0.0 0.00 0.27 0.22 83 988.7
20260510015003 55 295 0.0 0.0 0.00 0.27 0.22 84 988.8
20260510014505 55 295 0.0 0.0 0.00 0.27 0.22 84 988.9
20260510014002 55 295 0.0 0.0 0.00 0.27 0.22 84 989.2
20260510013501 54 295 0.0 0.0 0.00 0.27 0.22 84 989.0
20260510013010 54 295 0.0 0.0 0.00 0.28 0.22 84 988.8
20260510012503 54 295 0.0 0.0 0.00 0.28 0.22 84 988.5
20260510012007 54 295 0.0 0.0 0.00 0.28 0.22 84 988.7
20260510011533 54 295 0.0 0.0 0.00 0.28 0.22 84 988.5
20260510011006 54 295 0.0 0.0 0.00 0.28 0.22 84 988.5
20260510010506 54 295 0.0 0.0 0.00 0.29 0.22 83 988.6
20260510010020 55 295 0.0 0.0 0.00 0.29 0.22 83 988.7
20260510005503 55 295 0.0 0.0 0.00 0.29 0.22 83 988.5
20260510005003 55 295 0.0 0.0 0.00 0.30 0.22 82 988.5
20260510004504 55 295 0.0 0.0 0.00 0.30 0.22 82 988.4
20260510004005 55 295 0.0 0.0 0.00 0.30 0.22 82 988.3
20260510003503 55 295 0.0 0.0 0.00 0.30 0.22 81 988.5
20260510003007 56 295 0.0 0.0 0.00 0.31 0.22 81 988.4
20260510002502 56 295 0.0 0.0 0.00 0.31 0.22 80 988.4
20260510002006 56 295 0.0 0.0 0.00 0.32 0.22 80 988.3
20260510001514 56 295 0.0 0.0 0.00 0.32 0.22 80 988.3
20260510001006 56 295 0.0 0.0 0.00 0.32 0.22 79 988.3
20260510000506 57 295 0.0 0.0 0.00 0.33 0.22 79 988.4
20260510000018 57 295 0.0 0.0 0.00 0.33 0.22 79 988.5
20260509235510 57 295 0.0 0.0 0.00 0.33 0.22 78 988.5
20260509235006 57 295 0.0 0.0 0.00 0.34 0.22 78 988.5
20260509234527 58 295 0.0 0.0 0.00 0.34 0.22 77 988.3
20260509234011 58 295 0.0 0.0 0.00 0.34 0.22 77 988.1
20260509233507 58 295 0.0 0.0 0.00 0.34 0.22 76 988.1
20260509233007 58 295 0.0 0.0 0.00 0.35 0.22 76 988.3
20260509232503 58 295 0.0 0.0 0.00 0.36 0.22 76 988.4
20260509232004 59 295 0.0 0.0 0.00 0.37 0.22 75 988.3
20260509231512 59 295 0.0 0.0 0.00 0.38 0.22 76 988.4
20260509231005 59 295 0.0 0.0 0.00 0.38 0.22 75 988.5
20260509230506 59 295 0.0 0.0 0.00 0.39 0.22 75 988.4
20260509230016 59 295 0.0 0.0 0.00 0.40 0.22 74 988.3
20260509225507 59 295 0.0 0.0 0.00 0.41 0.22 74 988.3
20260509225006 60 295 0.0 0.0 0.00 0.41 0.22 74 988.4
20260509224521 60 295 0.0 0.0 0.00 0.42 0.22 74 988.5
20260509224007 60 295 0.0 0.0 0.00 0.43 0.22 74 988.5
20260509223506 60 295 0.0 0.0 0.00 0.44 0.22 73 988.6
20260509223023 60 295 0.0 0.0 0.00 0.44 0.22 74 988.6
20260509222509 59 295 0.0 0.0 0.00 0.45 0.22 74 988.6
20260509222002 59 295 0.0 0.0 0.00 0.46 0.22 75 988.5
20260509221508 59 295 0.0 0.0 0.00 0.47 0.22 74 988.5
20260509221004 59 295 0.0 0.0 0.00 0.47 0.22 73 988.5
20260509220503 60 295 0.0 0.0 0.00 0.47 0.22 73 988.4
20260509220013 60 295 0.0 0.0 0.00 0.47 0.22 73 988.4
20260509215506 60 294 0.0 0.0 0.00 0.47 0.22 72 988.4
20260509215008 60 295 0.0 0.0 0.00 0.47 0.22 72 988.4
20260509214526 60 295 0.0 0.0 0.00 0.47 0.22 72 988.5
20260509214006 60 295 0.0 0.0 0.00 0.47 0.22 71 988.7
20260509213507 60 294 0.0 0.0 0.00 0.48 0.22 72 988.7
20260509213022 60 295 0.0 0.0 0.00 0.48 0.22 74 988.5
20260509212507 59 295 0.0 0.0 0.00 0.48 0.22 74 988.4
20260509212007 59 294 0.0 0.0 0.00 0.48 0.22 73 988.4
20260509211524 60 294 0.0 0.0 0.00 0.49 0.22 71 988.5
20260509211010 61 294 0.0 0.0 0.00 0.50 0.22 71 988.5
20260509210504 62 294 0.0 0.0 0.00 0.50 0.22 69 988.5
20260509210008 62 294 0.0 0.0 0.00 0.50 0.22 70 988.5
20260509205504 62 294 0.0 0.0 0.00 0.50 0.22 71 988.5
20260509205006 61 294 0.0 0.0 0.00 0.50 0.22 73 988.5
20260509204503 60 294 0.0 0.0 0.00 0.50 0.22 73 988.5
20260509204003 60 294 0.0 0.0 0.00 0.50 0.22 72 988.7
20260509203504 60 294 0.0 0.0 0.00 0.50 0.22 73 988.8
20260509203004 60 294 0.0 0.0 0.00 0.50 0.22 73 988.8
20260509202502 60 294 0.0 0.0 0.00 0.50 0.22 73 988.8
20260509202007 60 294 0.0 0.0 0.00 0.50 0.22 73 988.9
20260509201504 60 294 0.0 0.0 0.00 0.50 0.22 73 989.0
20260509201004 60 294 0.0 0.0 0.00 0.50 0.22 73 989.1
20260509200503 60 294 0.0 0.0 0.00 0.50 0.22 72 989.0
20260509200007 60 294 0.0 0.0 0.00 0.50 0.22 72 989.1
20260509195506 60 294 0.0 0.0 0.00 0.50 0.22 73 989.1
20260509195005 60 294 0.0 0.0 0.00 0.50 0.22 72 989.0
20260509194517 60 294 0.0 0.0 0.00 0.50 0.22 73 989.1
20260509194005 60 294 0.0 0.0 0.00 0.50 0.22 73 989.1
20260509193505 60 294 0.0 0.0 0.00 0.50 0.22 74 989.1
20260509193003 60 294 0.0 0.0 0.00 0.50 0.22 73 989.3
20260509192502 60 294 0.0 0.0 0.00 0.50 0.22 71 989.4
20260509192002 61 294 0.0 0.0 0.00 0.50 0.22 71 989.4
20260509191508 62 294 0.0 0.0 0.00 0.50 0.22 68 989.4
20260509191003 64 294 0.0 0.0 0.00 0.50 0.22 65 989.6
20260509190502 66 294 0.0 0.0 0.00 0.50 0.22 65 989.7
20260509190007 67 293 0.0 0.0 0.00 0.50 0.22 61 989.6
20260509185502 69 293 0.0 0.0 0.00 0.50 0.22 61 989.6
20260509185007 68 293 0.0 0.0 0.00 0.50 0.22 65 989.8
20260509184515 62 292 0.0 0.0 0.00 0.50 0.22 78 989.8
20260509184007 60 286 0.0 0.0 0.00 0.50 0.22 75 989.3
20260509183503 59 287 0.0 0.0 0.00 0.50 0.22 73 991.1
20260509183016 60 289 0.0 0.0 0.00 0.50 0.22 72 991.3
20260509182507 60 289 0.0 0.0 0.00 0.50 0.22 73 991.7
20260509182010 60 290 0.0 0.0 0.00 0.50 0.22 73 991.3
20260509181503 62 288 0.0 0.0 0.00 0.50 0.22 69 990.0
20260509181003 65 288 0.0 0.0 0.00 0.50 0.22 63 989.1
20260509180503 65 288 0.0 0.0 0.00 0.50 0.22 65 991.0
20260509180004 67 288 0.0 0.0 0.00 0.50 0.22 64 991.2
20260509175503 67 286 0.0 0.0 0.00 0.50 0.22 65 991.6
20260509175006 65 290 0.0 0.0 0.00 0.50 0.22 66 991.1
20260509174510 63 290 0.0 0.0 0.00 0.50 0.22 69 987.8
20260509174002 62 307 0.0 0.0 0.00 0.50 0.22 70 988.0
20260509173505 63 304 0.0 0.0 0.00 0.50 0.22 70 988.0
20260509173014 64 304 0.0 0.0 0.00 0.50 0.22 66 988.1
20260509172503 67 288 0.0 0.0 0.00 0.50 0.22 65 987.3
20260509172006 67 288 0.0 0.0 0.00 0.50 0.22 64 989.4
20260509171519 67 289 0.0 0.0 0.00 0.50 0.22 63 983.7
20260509171006 68 289 0.0 0.0 0.00 0.50 0.22 60 985.0
20260509170508 65 287 0.0 0.0 0.00 0.50 0.22 62 983.4
20260509170023 67 288 0.0 0.0 0.00 0.50 0.22 59 985.5
20260509165502 68 285 0.0 0.0 0.00 0.50 0.22 59 981.9
20260509165004 68 287 0.0 0.0 0.00 0.50 0.22 59 984.2
20260509164504 68 287 0.0 0.0 0.00 0.50 0.22 58 982.6
20260509164003 69 288 0.0 0.0 0.00 0.50 0.22 54 979.3
20260509163503 67 288 0.0 0.0 0.00 0.50 0.22 54 975.8
20260509163007 66 287 0.0 0.0 0.00 0.50 0.22 58 972.3
20260509162505 66 287 0.0 0.0 0.00 0.50 0.22 58 972.5
20260509162007 66 285 0.0 0.0 0.00 0.50 0.22 59 974.2
20260509161515 66 287 0.0 0.0 0.00 0.50 0.22 60 976.4
20260509161010 65 285 0.0 0.0 0.00 0.50 0.22 63 979.2
20260509160506 65 287 0.0 0.0 0.00 0.50 0.22 63 981.2
20260509160020 65 286 0.0 0.0 0.00 0.50 0.22 66 983.3
20260509155509 64 285 0.0 0.0 0.00 0.50 0.22 66 981.9
20260509155009 65 288 0.0 0.0 0.00 0.50 0.22 65 978.0
20260509154524 64 286 0.0 0.0 0.00 0.50 0.22 66 979.1
20260509154003 64 293 0.0 0.0 0.00 0.50 0.22 67 980.2
20260509153502 62 293 0.0 0.0 0.00 0.50 0.22 68 980.2
20260509153015 63 290 0.0 0.0 0.00 0.50 0.22 67 980.3
20260509152504 63 286 0.0 0.0 0.00 0.50 0.22 68 981.3
20260509152004 66 286 0.0 0.0 0.00 0.50 0.22 64 978.2
20260509151513 63 285 0.0 0.0 0.00 0.50 0.22 69 977.6
20260509151003 63 286 0.0 0.0 0.00 0.50 0.22 71 979.7
20260509150507 63 287 0.0 0.0 0.00 0.50 0.22 70 982.6
20260509150026 62 287 0.0 0.0 0.00 0.50 0.22 72 981.9
20260509145509 62 286 0.0 0.0 0.00 0.50 0.22 72 981.9
20260509145010 61 286 0.0 0.0 0.00 0.50 0.22 75 981.6
20260509144528 60 288 0.0 0.0 0.00 0.50 0.22 78 979.2
20260509144014 57 286 0.0 0.0 0.00 0.50 0.22 80 961.5
20260509143506 58 289 0.0 0.0 0.00 0.50 0.22 80 967.9
20260509143026 57 286 0.0 0.0 0.00 0.50 0.22 81 966.7
20260509142503 57 286 0.0 0.0 0.00 0.50 0.22 80 967.2
20260509142003 59 286 0.0 0.0 0.00 0.50 0.22 79 972.6
20260509141514 59 286 0.0 0.0 0.00 0.50 0.22 80 974.9
20260509141003 60 287 0.0 0.0 0.00 0.50 0.22 80 978.6
20260509140505 59 286 0.0 0.0 0.00 0.50 0.22 81 980.2
20260509140026 58 286 0.0 0.0 0.00 0.50 0.22 83 977.9
20260509135503 58 287 0.0 0.0 0.00 0.50 0.22 83 975.2
20260509135008 57 287 0.0 0.0 0.00 0.50 0.22 84 975.4
20260509134538 60 286 0.0 0.0 0.00 0.50 0.22 81 976.6
20260509134006 59 285 0.0 0.0 0.00 0.50 0.22 80 975.6
20260509133509 60 286 0.0 0.0 0.00 0.50 0.22 80 975.8
20260509133024 60 286 0.0 0.0 0.00 0.50 0.22 81 973.4
20260509132508 60 285 0.0 0.0 0.00 0.50 0.22 83 980.3
20260509132013 58 288 0.0 0.0 0.00 0.50 0.22 86 973.9
20260509131524 56 288 0.0 0.0 0.00 0.50 0.22 88 967.8
20260509131011 56 288 0.0 0.0 0.00 0.50 0.22 89 967.6
20260509130504 55 286 0.0 0.0 0.00 0.50 0.22 92 968.5
20260509130012 54 288 0.0 0.0 0.00 0.50 0.22 95 970.7
20260509125505 54 290 0.0 0.0 0.00 0.50 0.22 96 969.1
20260509125004 54 296 0.0 0.0 0.00 0.50 0.22 97 969.9
20260509124515 53 298 0.0 0.0 0.00 0.50 0.22 96 971.2
20260509124007 53 299 0.0 0.0 0.00 0.50 0.22 96 971.2
20260509123502 53 299 0.0 0.0 0.00 0.50 0.22 96 971.3
20260509123004 52 299 0.0 0.0 0.00 0.50 0.22 96 971.3
20260509122504 53 299 0.0 0.0 0.00 0.50 0.22 96 971.3
20260509122006 52 299 0.0 0.0 0.00 0.50 0.22 96 971.2
20260509121519 52 299 0.0 0.0 0.00 0.50 0.22 96 971.2
20260509121005 52 299 0.0 0.0 0.00 0.50 0.22 96 971.2
20260509120504 52 299 0.0 0.0 0.00 0.50 0.22 96 971.2
20260509120007 52 299 0.0 0.0 0.00 0.50 0.22 96 971.3
20260509115504 52 299 0.0 0.0 0.00 0.50 0.22 96 971.3
20260509115004 52 299 0.0 0.0 0.00 0.50 0.22 96 971.3
20260509114527 52 299 0.0 0.0 0.00 0.50 0.22 96 971.2
20260509114007 52 299 0.0 0.0 0.00 0.50 0.22 96 971.2
20260509113503 52 299 0.0 0.0 0.00 0.50 0.22 96 971.2
20260509113009 52 299 0.0 0.0 0.00 0.50 0.22 96 971.2
20260509112503 52 299 0.0 0.0 0.00 0.50 0.22 96 971.3
20260509112005 52 299 0.0 0.0 0.00 0.50 0.22 96 971.2
20260509111504 52 299 0.0 0.0 0.00 0.50 0.22 96 971.2
20260509111004 51 299 0.0 0.0 0.00 0.50 0.22 96 971.1
20260509110504 51 299 0.0 0.0 0.00 0.50 0.22 96 971.0
20260509110006 51 299 0.0 0.0 0.00 0.50 0.22 96 971.0
20260509105505 51 299 0.0 0.0 0.00 0.50 0.22 96 971.0
20260509105004 51 299 0.0 0.0 0.00 0.50 0.22 96 970.9
20260509104508 51 299 0.0 0.0 0.00 0.50 0.22 96 971.1
20260509104006 51 299 0.0 0.0 0.00 0.50 0.22 96 971.1
20260509103506 51 299 0.0 0.0 0.00 0.50 0.22 96 971.1
20260509103014 51 299 0.0 0.0 0.00 0.50 0.22 96 971.1
20260509102507 51 299 0.0 0.0 0.00 0.50 0.22 96 971.0
20260509102007 51 299 0.0 0.0 0.00 0.50 0.22 96 971.0
20260509101505 51 299 0.0 0.0 0.00 0.50 0.22 96 971.1
20260509101003 51 299 0.0 0.0 0.00 0.50 0.22 96 971.2
20260509100503 51 299 0.0 0.0 0.00 0.50 0.22 96 971.3
20260509100005 51 299 0.0 0.0 0.00 0.50 0.22 96 971.2
20260509095502 51 299 0.0 0.0 0.00 0.50 0.22 96 971.3
20260509095002 51 299 0.0 0.0 0.00 0.50 0.22 96 971.3
20260509094517 51 299 0.0 0.0 0.00 0.50 0.22 96 971.3
20260509094004 51 299 0.0 0.0 0.00 0.50 0.22 96 971.2
20260509093503 51 299 0.0 0.0 0.00 0.50 0.22 96 971.3
20260509093010 51 299 0.0 0.0 0.01 0.50 0.22 95 971.4
20260509092506 51 299 0.0 0.0 0.01 0.50 0.22 95 971.4
20260509092005 51 299 0.0 0.0 0.01 0.50 0.22 95 971.4
20260509091530 51 299 0.0 0.0 0.01 0.50 0.22 95 971.5
20260509091007 51 299 0.0 0.0 0.01 0.50 0.22 95 971.6
20260509090506 51 299 0.0 0.0 0.01 0.50 0.22 95 971.6
20260509090022 51 299 0.0 0.0 0.01 0.50 0.22 95 971.6
20260509085503 51 299 0.0 0.0 0.01 0.50 0.22 95 971.6
20260509085003 51 299 0.0 0.0 0.01 0.50 0.22 95 971.6
20260509084506 51 299 0.0 0.0 0.01 0.50 0.22 95 971.6
20260509084006 51 299 0.0 0.0 0.01 0.50 0.22 96 971.7
20260509083502 51 299 0.0 0.0 0.02 0.50 0.22 95 971.7
20260509083012 51 299 0.0 0.0 0.01 0.49 0.21 95 971.7
20260509082503 51 299 0.0 0.0 0.01 0.49 0.21 95 971.7